• In Denmark
  • List of Countries
  • For 7 days
  • Water Temperature
  • Satellite Maps
  • Weather Map
  • Weather Widgets
  • user-avatar
    Login

    Hourly Weather Khampho

    Today, 17 October, Tuesday

    Time Temperature Precipitation Wind Pressure Humidity
    00:00 +23°C° 0 mm 2 mps 736 mmHg 78%
    01:00 +23°C° 0 mm 2 mps 737 mmHg 78%
    02:00 +23°C° 0 mm 2 mps 737 mmHg 78%
    03:00 +23°C° 0 mm 2 mps 736 mmHg 79%
    04:00 +23°C° 0 mm 2 mps 736 mmHg 79%
    05:00 +23°C° 0 mm 2 mps 737 mmHg 79%
    06:00 +23°C° 0 mm 2 mps 737 mmHg 79%
    07:00 +23°C° 0 mm 2 mps 737 mmHg 79%
    08:00 +25°C° 0 mm 2 mps 738 mmHg 73%
    09:00 +26°C° 0 mm 2 mps 738 mmHg 66%
    10:00 +28°C° 0 mm 2 mps 738 mmHg 60%
    11:00 +30°C° 0 mm 2 mps 737 mmHg 56%
    12:00 +31°C° 0 mm 2 mps 737 mmHg 52%
    13:00 +32°C° 0 mm 2 mps 736 mmHg 47%
    14:00 +32°C° 0 mm 2 mps 736 mmHg 51%
    15:00 +31°C° 0 mm 2 mps 736 mmHg 55%
    16:00 +30°C° 0 mm 2 mps 735 mmHg 59%
    17:00 +29°C° 0 mm 2 mps 735 mmHg 64%
    18:00 +27°C° 0 mm 2 mps 736 mmHg 69%
    19:00 +25°C° 0 mm 2 mps 736 mmHg 74%
    20:00 +25°C° 0 mm 2 mps 736 mmHg 75%
    21:00 +24°C° 0 mm 2 mps 737 mmHg 77%
    22:00 +24°C° 0 mm 2 mps 737 mmHg 78%
    23:00 +23°C° 0 mm 2 mps 737 mmHg 80%

    Tomorrow, 18 October, Wednesday

    Time Temperature Precipitation Wind Pressure Humidity
    00:00 +23°C° 0 mm 1 mps 737 mmHg 82%
    01:00 +23°C° 0 mm 1 mps 737 mmHg 84%
    02:00 +22°C° 0 mm 1 mps 737 mmHg 85%
    03:00 +22°C° 0 mm 1 mps 736 mmHg 86%
    04:00 +22°C° 0 mm 1 mps 736 mmHg 87%
    05:00 +22°C° 0 mm 1 mps 736 mmHg 86%
    06:00 +23°C° 0 mm 1 mps 737 mmHg 85%
    07:00 +23°C° 0 mm 1 mps 737 mmHg 84%
    08:00 +26°C° 0 mm 2 mps 738 mmHg 76%
    09:00 +28°C° 0 mm 2 mps 738 mmHg 69%
    10:00 +31°C° 0 mm 2 mps 739 mmHg 61%
    11:00 +31°C° 0.5 mm 2 mps 738 mmHg 65%
    12:00 +31°C° 0.5 mm 2 mps 737 mmHg 69%
    13:00 +31°C° 0.5 mm 2 mps 736 mmHg 73%
    14:00 +30°C° 0.9 mm 2 mps 736 mmHg 74%
    15:00 +30°C° 0.9 mm 2 mps 736 mmHg 75%
    16:00 +30°C° 0.9 mm 3 mps 735 mmHg 76%
    17:00 +28°C° 0.1 mm 2 mps 736 mmHg 80%
    18:00 +27°C° 0.1 mm 2 mps 736 mmHg 84%
    19:00 +26°C° 0.1 mm 2 mps 736 mmHg 88%
    20:00 +25°C° 0 mm 2 mps 737 mmHg 89%
    21:00 +25°C° 0 mm 2 mps 737 mmHg 90%
    22:00 +24°C° 0 mm 2 mps 738 mmHg 90%
    23:00 +24°C° 0 mm 2 mps 738 mmHg 91%

    Day after tomorrow, 19 October, Thursday

    Time Temperature Precipitation Wind Pressure Humidity
    00:00 +24°C° 0 mm 2 mps 737 mmHg 91%
    01:00 +24°C° 0 mm 2 mps 737 mmHg 92%
    02:00 +24°C° 0 mm 2 mps 737 mmHg 92%
    03:00 +24°C° 0 mm 2 mps 736 mmHg 92%
    04:00 +24°C° 0 mm 2 mps 736 mmHg 92%
    05:00 +24°C° 0 mm 2 mps 737 mmHg 90%
    06:00 +25°C° 0 mm 2 mps 737 mmHg 88%
    07:00 +25°C° 0 mm 2 mps 738 mmHg 86%
    08:00 +27°C° 0 mm 3 mps 738 mmHg 78%
    09:00 +29°C° 0 mm 3 mps 739 mmHg 70%
    10:00 +32°C° 0 mm 4 mps 739 mmHg 61%
    11:00 +33°C° 0 mm 4 mps 738 mmHg 59%
    12:00 +33°C° 0 mm 4 mps 737 mmHg 57%
    13:00 +34°C° 0 mm 4 mps 737 mmHg 55%
    14:00 +33°C° 0 mm 3 mps 736 mmHg 58%
    15:00 +33°C° 0 mm 3 mps 736 mmHg 60%
    16:00 +31°C° 0 mm 3 mps 735 mmHg 63%
    17:00 +29°C° 0 mm 3 mps 736 mmHg 68%
    18:00 +28°C° 0 mm 2 mps 736 mmHg 74%
    19:00 +26°C° 0 mm 2 mps 737 mmHg 80%
    20:00 +25°C° 0 mm 2 mps 737 mmHg 83%
    21:00 +25°C° 0 mm 2 mps 738 mmHg 87%
    22:00 +24°C° 0 mm 2 mps 738 mmHg 90%
    23:00 +24°C° 0 mm 2 mps 738 mmHg 92%

    20 October, Friday

    Time Temperature Precipitation Wind Pressure Humidity
    00:00 +24°C° 0 mm 1 mps 738 mmHg 93%
    01:00 +23°C° 0 mm 1 mps 738 mmHg 95%
    02:00 +23°C° 0 mm 1 mps 738 mmHg 96%
    03:00 +23°C° 0 mm 1 mps 737 mmHg 96%
    04:00 +23°C° 0 mm 1 mps 737 mmHg 97%
    05:00 +23°C° 0 mm 1 mps 738 mmHg 95%
    06:00 +24°C° 0 mm 1 mps 738 mmHg 92%
    07:00 +24°C° 0 mm 1 mps 738 mmHg 90%
    08:00 +27°C° 0 mm 1 mps 739 mmHg 79%
    09:00 +29°C° 0 mm 1 mps 739 mmHg 68%
    10:00 +32°C° 0 mm 1 mps 739 mmHg 57%
    11:00 +33°C° 0 mm 1 mps 738 mmHg 53%
    12:00 +34°C° 0 mm 1 mps 737 mmHg 49%
    13:00 +35°C° 0 mm 1 mps 736 mmHg 46%
    14:00 +34°C° 0 mm 1 mps 736 mmHg 49%
    15:00 +35°C° 0 mm 2 mps 736 mmHg 52%
    16:00 +34°C° 0 mm 2 mps 735 mmHg 56%
    17:00 +31°C° 0 mm 2 mps 736 mmHg 63%
    18:00 +29°C° 0 mm 2 mps 736 mmHg 70%
    19:00 +27°C° 0 mm 2 mps 737 mmHg 77%
    20:00 +27°C° 0 mm 2 mps 737 mmHg 80%
    21:00 +26°C° 0 mm 2 mps 737 mmHg 84%
    22:00 +25°C° 0 mm 2 mps 738 mmHg 87%
    23:00 +24°C° 0 mm 2 mps 737 mmHg 90%

    21 October, Saturday

    Time Temperature Precipitation Wind Pressure Humidity
    00:00 +24°C° 0 mm 1 mps 737 mmHg 92%
    01:00 +24°C° 0 mm 1 mps 736 mmHg 94%
    02:00 +23°C° 0 mm 1 mps 736 mmHg 94%
    03:00 +23°C° 0 mm 1 mps 736 mmHg 95%
    04:00 +23°C° 0 mm 1 mps 736 mmHg 96%
    05:00 +23°C° 0 mm 1 mps 737 mmHg 93%
    06:00 +24°C° 0 mm 1 mps 737 mmHg 91%
    07:00 +24°C° 0 mm 1 mps 738 mmHg 88%
    08:00 +27°C° 0 mm 1 mps 738 mmHg 77%
    09:00 +30°C° 0 mm 1 mps 738 mmHg 66%
    10:00 +32°C° 0 mm 1 mps 738 mmHg 55%
    11:00 +34°C° 0 mm 1 mps 737 mmHg 50%
    12:00 +35°C° 0 mm 1 mps 736 mmHg 46%
    13:00 +34°C° 0 mm 0 mps 735 mmHg 41%
    14:00 +34°C° 0 mm 0 mps 735 mmHg 43%
    15:00 +33°C° 0 mm 0 mps 734 mmHg 45%
    16:00 +32°C° 0 mm 0 mps 734 mmHg 46%
    17:00 +32°C° 0 mm 1 mps 734 mmHg 55%
    18:00 +30°C° 0 mm 1 mps 735 mmHg 63%
    19:00 +28°C° 0 mm 1 mps 735 mmHg 71%
    20:00 +27°C° 0 mm 1 mps 735 mmHg 77%
    21:00 +26°C° 0 mm 1 mps 736 mmHg 82%
    22:00 +26°C° 0 mm 1 mps 736 mmHg 87%
    23:00 +25°C° 0 mm 1 mps 736 mmHg 89%

    22 October, Sunday

    Time Temperature Precipitation Wind Pressure Humidity
    00:00 +25°C° 0 mm 1 mps 736 mmHg 91%
    01:00 +24°C° 0 mm 1 mps 735 mmHg 93%
    02:00 +24°C° 0 mm 1 mps 735 mmHg 94%
    03:00 +24°C° 0 mm 1 mps 735 mmHg 94%
    04:00 +24°C° 0 mm 1 mps 735 mmHg 94%
    05:00 +24°C° 0 mm 1 mps 736 mmHg 92%
    06:00 +25°C° 0 mm 1 mps 736 mmHg 89%
    07:00 +25°C° 0 mm 1 mps 737 mmHg 87%
    08:00 +28°C° 0 mm 1 mps 737 mmHg 78%
    09:00 +30°C° 0 mm 1 mps 737 mmHg 68%
    10:00 +33°C° 0 mm 1 mps 737 mmHg 59%
    11:00 +34°C° 0.2 mm 1 mps 736 mmHg 57%
    12:00 +34°C° 0.2 mm 1 mps 735 mmHg 55%
    13:00 +35°C° 0.2 mm 1 mps 734 mmHg 52%
    14:00 +34°C° 0.4 mm 1 mps 734 mmHg 55%
    15:00 +34°C° 0.4 mm 1 mps 734 mmHg 57%
    16:00 +33°C° 0.4 mm 1 mps 733 mmHg 60%
    17:00 +31°C° 0.2 mm 1 mps 734 mmHg 67%
    18:00 +29°C° 0.2 mm 1 mps 734 mmHg 75%
    19:00 +28°C° 0.2 mm 1 mps 735 mmHg 83%
    20:00 +27°C° 0 mm 1 mps 735 mmHg 86%
    21:00 +27°C° 0 mm 1 mps 736 mmHg 88%
    22:00 +26°C° 0 mm 1 mps 736 mmHg 90%
    23:00 +26°C° 0.2 mm 1 mps 736 mmHg 92%
    Show more